Weather History for Abilene Dyess, TX

Change the Weather History Date:

Thursday, December 6, 2012

  Actual Average Record
Temperature  
Mean Temperature 62 °F -  
Max Temperature 79 °F 60 °F 79 °F (2012)
Min Temperature 45 °F 38 °F 18 °F (2013)
Degree Days  
Heating Degree Days 3    
Growing Degree Days 12 (Base 50)    
Moisture  
Dew Point 32 °F    
Average Humidity 37    
Maximum Humidity 55    
Minimum Humidity 21    
Precipitation  
Precipitation 0.00 in - - ()
Sea Level Pressure  
Sea Level Pressure 29.83 in    
Wind  
Wind Speed 8 mph (SSW)    
Max Wind Speed 21 mph    
Max Gust Speed -    
Visibility 10 miles    
Events      
Averages and records for this station are not official NWS values.
T = Trace of Precipitation, MM = Missing Value Source: NWS Daily Summary

Daily Weather History Graph

Daily Weather History Graph

Search for Another Location

Airport:

Trip Planner

Search our weather history database for the weather conditions in past years. The results will help you decide how hot, cold, wet, or windy it might be!

Date:

Astronomy

Dec. 06, 2012 Rise Set
Actual Time 7:27 AM CST 5:33 PM CST
Civil Twilight 7:00 AM CST 6:00 PM CST
Nautical Twilight 6:30 AM CST 6:31 PM CST
Astronomical Twilight 6:00 AM CST 7:01 PM CST
Moon 12:07 AM CST (12/6) 12:40 PM CST (12/6)
Length of Visible Light 11h 00m
Length of Day
10h 06m
Waning Gibbous, 49% of the Moon is Illuminated
Dec 6
Waning Gibbous
Dec 13
New
Dec 19
First Quarter
Dec 28
Full
Jan 4
Last Quarter

Hourly Weather History & Observations

Time (CST) Temp. Windchill Dew Point Humidity Pressure Visibility Wind Dir Wind Speed Gust Speed Precip Events Conditions
12:55 AM 50.9 °F - 24.3 °F 35% 29.95 in 10.0 mi Calm Calm - N/A   Clear
1:55 AM 47.1 °F - 25.3 °F 43% 29.92 in 10.0 mi SSE 5.8 mph - N/A   Clear
2:55 AM 51.6 °F - 26.6 °F 38% 29.90 in 10.0 mi South 15.0 mph - N/A   Clear
3:55 AM 49.5 °F - 26.2 °F 40% 29.87 in 10.0 mi South 8.1 mph - N/A   Clear
4:55 AM 47.8 °F - 27.7 °F 46% 29.86 in 10.0 mi South 12.7 mph - N/A   Clear
5:55 AM 45.5 °F 40.8 °F 28.4 °F 51% 29.88 in 10.0 mi SSE 9.2 mph - N/A   Clear
6:55 AM 49.8 °F - 29.1 °F 45% 29.88 in 10.0 mi SSW 6.9 mph - N/A   Clear
7:55 AM 52.2 °F - 29.3 °F 41% 29.88 in 10.0 mi South 8.1 mph - N/A   Clear
8:55 AM 57.6 °F - 30.4 °F 36% 29.88 in 10.0 mi South 11.5 mph - N/A   Clear
9:55 AM 63.3 °F - 32.2 °F 31% 29.86 in 10.0 mi SSW 20.7 mph - N/A   Clear
10:55 AM 66.9 °F - 34.2 °F 30% 29.83 in 10.0 mi SSW 17.3 mph - N/A   Clear
11:55 AM 70.0 °F - 35.4 °F 28% 29.81 in 10.0 mi SSW 12.7 mph - N/A   Clear
12:55 PM 73.4 °F - 36.9 °F 26% 29.77 in 10.0 mi SSW 12.7 mph - N/A   Clear
1:55 PM 76.3 °F - 36.3 °F 24% 29.74 in 10.0 mi WSW 9.2 mph - N/A   Clear
2:55 PM 78.8 °F - 36.1 °F 21% 29.72 in 10.0 mi SW 10.4 mph - N/A   Clear
3:55 PM 79.2 °F - 37.0 °F 22% 29.71 in 10.0 mi SW 9.2 mph - N/A   Clear
4:55 PM 76.6 °F - 37.6 °F 24% 29.72 in 10.0 mi South 8.1 mph - N/A   Clear
5:55 PM 60.3 °F - 36.7 °F 41% 29.75 in 10.0 mi South 6.9 mph - N/A   Clear
6:55 PM 61.9 °F - 35.6 °F 38% 29.76 in 10.0 mi Calm Calm - N/A   Clear
7:55 PM 52.3 °F - 36.5 °F 55% 29.78 in 10.0 mi SSE 3.5 mph - N/A   Clear
8:55 PM 54.7 °F - 34.3 °F 46% 29.81 in 10.0 mi NW 9.2 mph - N/A   Clear
9:55 PM 56.5 °F - 29.8 °F 36% 29.82 in 10.0 mi North 8.1 mph - N/A   Clear
10:55 PM 51.4 °F - 29.1 °F 42% 29.85 in 10.0 mi North 5.8 mph - N/A   Clear
11:55 PM 51.3 °F - 28.8 °F 42% 29.86 in 10.0 mi NNW 6.9 mph - N/A   Clear